DW6160 Weather Reports


Display with metric or nautical units.
time (UTC)temp
F
wind
direction
speed
MPH
gust
MPH
rain 1hr
in
rain 24hr
in
rain mn
in
humidity
%
barometer
mb
20171213012530 39 198 0.0 0.0 0.00 0.00 0.00 62 1017.7
20171213012020 39 202 0.0 0.0 0.00 0.00 0.00 62 1017.8
20171213011527 39 200 0.0 0.0 0.00 0.00 0.00 61 1017.8
20171213011036 39 206 0.0 0.0 0.00 0.00 0.00 61 1018.0
20171213010524 39 200 0.0 0.0 0.00 0.00 0.00 61 1018.1
20171213010040 39 201 0.0 0.0 0.00 0.00 0.00 61 1018.1
20171213005531 39 205 0.0 0.0 0.00 0.00 0.00 60 1018.2
20171213005021 39 209 0.0 0.0 0.00 0.00 0.00 59 1018.3
20171213004528 39 213 0.0 0.0 0.00 0.00 0.00 59 1018.5
20171213004017 38 219 0.0 0.0 0.00 0.00 0.00 59 1018.5
20171213003524 38 221 0.0 0.0 0.00 0.00 0.00 58 1018.6
20171213003030 38 222 0.0 0.0 0.00 0.00 0.00 57 1018.7
20171213002535 38 224 0.0 0.0 0.00 0.00 0.00 57 1018.8
20171213002023 38 224 0.0 0.0 0.00 0.00 0.00 58 1018.9
20171213001528 38 224 0.0 0.0 0.00 0.00 0.00 57 1018.8
20171213001033 38 224 0.0 0.0 0.00 0.00 0.00 55 1018.8
20171213000519 39 224 0.0 0.0 0.00 0.00 0.00 54 1018.9
20171213000039 39 224 0.0 0.0 0.00 0.00 0.00 55 1018.9
20171212235529 39 224 0.0 0.0 0.00 0.00 0.00 55 1019.0
20171212235020 39 224 0.0 0.0 0.00 0.00 0.00 54 1019.1
20171212234526 39 224 0.0 0.0 0.00 0.00 0.00 54 1019.1
20171212234031 39 224 0.0 0.0 0.00 0.00 0.00 54 1019.2
20171212233515 39 224 0.0 0.0 0.00 0.00 0.00 52 1019.3
20171212233023 40 225 0.0 0.0 0.00 0.00 0.00 50 1019.4
20171212232532 41 225 0.0 0.0 0.00 0.00 0.00 48 1019.4
20171212232035 42 225 0.0 0.0 0.00 0.00 0.00 48 1019.5
20171212231521 44 225 0.0 0.0 0.00 0.00 0.00 45 1019.5
20171212231028 45 225 0.0 0.0 0.00 0.00 0.00 44 1019.5
20171212230536 47 226 0.0 0.0 0.00 0.00 0.00 43 1019.7
20171212230049 48 226 0.0 0.0 0.00 0.00 0.00 43 1019.7
20171212225520 49 226 0.0 0.0 0.00 0.00 0.00 42 1019.8
20171212225029 49 226 0.0 0.0 0.00 0.00 0.00 41 1019.9
20171212224515 50 233 0.0 0.0 0.00 0.00 0.00 41 1020.1
20171212224024 51 234 0.0 0.0 0.00 0.00 0.00 40 1020.1
20171212223532 51 233 0.0 0.0 0.00 0.00 0.00 40 1020.2
20171212223037 51 236 0.0 0.0 0.00 0.00 0.00 40 1020.3
20171212222535 52 246 0.0 0.0 0.00 0.00 0.00 40 1020.4
20171212222024 52 234 0.0 0.0 0.00 0.00 0.00 40 1020.5
20171212221532 52 244 0.0 0.0 0.00 0.00 0.00 39 1020.5
20171212221021 52 257 0.0 0.0 0.00 0.00 0.00 39 1020.6
20171212220530 52 245 0.0 0.0 0.00 0.00 0.00 40 1020.7
20171212220047 52 243 0.0 0.0 0.00 0.00 0.00 39 1020.7
20171212215521 52 250 0.0 0.0 0.00 0.00 0.00 40 1020.8
20171212215029 52 238 0.0 0.0 0.00 0.00 0.00 40 1021.0
20171212214535 52 239 0.0 0.0 0.00 0.00 0.00 40 1021.0
20171212214020 52 254 0.0 0.0 0.00 0.00 0.00 40 1021.0
20171212213529 52 255 0.0 0.0 0.00 0.00 0.00 40 1021.2
20171212213014 52 250 0.0 0.0 0.00 0.00 0.00 41 1021.3
20171212212523 52 233 0.0 0.0 0.00 0.00 0.00 41 1021.3
20171212212016 52 246 0.0 0.0 0.00 0.00 0.00 41 1021.4
20171212211523 52 246 0.0 0.0 0.00 0.00 0.00 41 1021.5
20171212211029 52 251 0.0 0.0 0.00 0.00 0.00 42 1021.6
20171212210517 52 254 0.0 0.0 0.00 0.00 0.00 42 1021.7
20171212210034 52 265 0.0 0.0 0.00 0.00 0.00 43 1021.9
20171212205527 52 293 0.0 0.0 0.00 0.00 0.00 43 1021.9
20171212205016 52 243 0.0 0.0 0.00 0.00 0.00 43 1022.0
20171212204525 52 275 0.0 0.0 0.00 0.00 0.00 44 1022.2
20171212204032 52 261 0.0 0.0 0.00 0.00 0.00 43 1022.2
20171212203524 52 250 0.0 0.0 0.00 0.00 0.00 44 1022.4
20171212203029 51 269 0.0 0.0 0.00 0.00 0.00 45 1022.5
20171212202538 51 316 0.0 0.0 0.00 0.00 0.00 45 1022.6
20171212202024 51 243 0.0 0.0 0.00 0.00 0.00 45 1022.6
20171212201528 51 242 0.0 0.0 0.00 0.00 0.00 47 1022.7
20171212201034 51 238 0.0 0.0 0.00 0.00 0.00 48 1022.9
20171212200524 50 248 0.0 0.0 0.00 0.00 0.00 48 1023.0
20171212200041 50 245 0.0 0.0 0.00 0.00 0.00 48 1023.1
20171212195515 50 261 0.0 0.0 0.00 0.00 0.00 49 1023.2
20171212195027 50 257 0.0 0.0 0.00 0.00 0.00 50 1023.4
20171212194517 49 246 0.0 0.0 0.00 0.00 0.00 51 1023.6
20171212194025 49 238 0.0 0.0 0.00 0.00 0.00 52 1023.6
20171212193534 49 226 0.0 0.0 0.00 0.00 0.00 51 1023.8
20171212193021 49 225 0.0 0.0 0.00 0.00 0.00 52 1023.9
20171212192528 48 283 0.0 0.0 0.00 0.00 0.00 53 1023.9
20171212192016 48 252 0.0 0.0 0.00 0.00 0.00 53 1024.1
20171212191526 48 234 0.0 0.0 0.00 0.00 0.00 54 1024.1
20171212191034 48 300 0.0 0.0 0.00 0.00 0.00 54 1024.4
20171212190521 48 252 0.0 0.0 0.00 0.00 0.00 55 1024.5
20171212190042 47 288 0.0 0.0 0.00 0.00 0.00 55 1024.7
20171212185535 47 227 0.0 0.0 0.00 0.00 0.00 55 1024.8
20171212185018 47 267 0.0 0.0 0.00 0.00 0.00 56 1025.0
20171212184525 46 269 0.0 0.0 0.00 0.00 0.00 56 1025.1
20171212184016 46 261 0.0 0.0 0.00 0.00 0.00 57 1025.3
20171212183524 46 233 0.0 0.0 0.00 0.00 0.00 57 1025.4
20171212183031 46 274 0.0 0.0 0.00 0.00 0.00 57 1025.6
20171212182517 46 262 0.0 0.0 0.00 0.00 0.00 57 1025.7
20171212182027 45 236 0.0 0.0 0.00 0.00 0.00 58 1025.8
20171212181520 45 252 0.0 0.0 0.00 0.00 0.00 58 1025.9
20171212181026 45 285 0.0 0.0 0.00 0.00 0.00 58 1026.0
20171212180533 44 234 0.0 0.0 0.00 0.00 0.00 59 1026.2
20171212180031 44 242 0.0 0.0 0.00 0.00 0.00 60 1026.5
20171212175524 43 263 0.0 0.0 0.00 0.00 0.00 61 1026.7
20171212175033 43 273 0.0 0.0 0.00 0.00 0.00 62 1026.8
20171212174519 43 307 0.0 0.0 0.00 0.00 0.00 61 1027.0
20171212174025 43 249 0.0 0.0 0.00 0.00 0.00 63 1027.1
20171212173533 42 267 0.0 0.0 0.00 0.00 0.00 63 1027.3
20171212173019 42 256 0.0 0.0 0.00 0.00 0.00 64 1027.4
20171212172530 42 281 0.0 0.0 0.00 0.00 0.00 65 1027.5
20171212172020 42 269 0.0 0.0 0.00 0.00 0.00 66 1027.8
20171212171526 41 245 0.0 0.0 0.00 0.00 0.00 66 1027.9
20171212171036 41 313 0.0 0.0 0.00 0.00 0.00 67 1028.1
20171212170522 40 267 0.0 0.0 0.00 0.00 0.00 68 1028.2
20171212170040 40 264 0.0 0.0 0.00 0.00 0.00 69 1028.3
20171212165533 40 249 0.0 0.0 0.00 0.00 0.00 70 1028.4
20171212165020 39 242 0.0 0.0 0.00 0.00 0.00 71 1028.5
20171212164526 39 289 0.0 0.0 0.00 0.00 0.00 72 1028.6
20171212164017 39 257 0.0 0.0 0.00 0.00 0.00 72 1028.6
20171212163528 38 265 0.0 0.0 0.00 0.00 0.00 73 1028.6
20171212163035 38 308 0.0 0.0 0.00 0.00 0.00 74 1028.6
20171212162521 37 277 0.0 0.0 0.00 0.00 0.00 74 1028.6
20171212162027 37 270 0.0 0.0 0.00 0.00 0.00 75 1028.6
20171212161534 36 269 0.0 0.0 0.00 0.00 0.00 76 1028.6
20171212161022 36 313 0.0 0.0 0.00 0.00 0.00 77 1028.6
20171212160517 35 304 0.0 0.0 0.00 0.00 0.00 78 1028.6
20171212160040 35 311 0.0 0.0 0.00 0.00 0.00 79 1028.6
20171212155533 35 311 0.0 0.0 0.00 0.00 0.00 79 1028.6
20171212155021 34 287 0.0 0.0 0.00 0.00 0.00 81 1028.6
20171212154514 33 311 0.0 0.0 0.00 0.00 0.00 81 1028.7
20171212154023 33 296 0.0 0.0 0.00 0.00 0.00 83 1028.6
20171212153532 32 296 0.0 0.0 0.00 0.00 0.00 83 1028.7
20171212153020 32 319 0.0 0.0 0.00 0.00 0.00 83 1028.7
20171212152527 31 297 0.0 0.0 0.00 0.00 0.00 83 1028.6
20171212152034 31 297 0.0 0.0 0.00 0.00 0.00 84 1028.6
20171212151522 31 321 0.0 0.0 0.00 0.00 0.00 84 1028.7
20171212151029 30 321 0.0 0.0 0.00 0.00 0.00 85 1028.6
20171212150516 30 326 0.0 0.0 0.00 0.00 0.00 85 1028.8
20171212150040 29 317 0.0 0.0 0.00 0.00 0.00 85 1028.7
20171212145531 29 317 0.0 0.0 0.00 0.00 0.00 85 1028.6
20171212145023 28 317 0.0 0.0 0.00 0.00 0.00 86 1028.6
20171212144530 28 317 0.0 0.0 0.00 0.00 0.00 86 1028.6
20171212144015 27 317 0.0 0.0 0.00 0.00 0.00 85 1028.6
20171212143527 27 317 0.0 0.0 0.00 0.00 0.00 86 1028.6
20171212143032 27 317 0.0 0.0 0.00 0.00 0.00 86 1028.6
20171212142520 26 317 0.0 0.0 0.00 0.00 0.00 85 1028.7
20171212142028 26 317 0.0 0.0 0.00 0.00 0.00 85 1028.6
20171212141519 26 317 0.0 0.0 0.00 0.00 0.00 85 1028.8
20171212141026 25 317 0.0 0.0 0.00 0.00 0.00 85 1028.7
20171212140532 25 317 0.0 0.0 0.00 0.00 0.00 85 1028.8
20171212140028 25 317 0.0 0.0 0.00 0.00 0.00 86 1028.8
20171212135525 25 317 0.0 0.0 0.00 0.00 0.00 86 1028.9
20171212135033 25 317 0.0 0.0 0.00 0.00 0.00 86 1029.0
20171212134518 25 317 0.0 0.0 0.00 0.00 0.00 86 1029.0
20171212134028 25 317 0.0 0.0 0.00 0.00 0.00 86 1029.1
20171212133516 25 318 0.0 0.0 0.00 0.00 0.00 86 1029.0
20171212133044 25 318 0.0 0.0 0.00 0.00 0.00 86 1029.0
20171212132531 24 318 0.0 0.0 0.00 0.00 0.00 87 1028.9
20171212132019 24 317 0.0 0.0 0.00 0.00 0.00 87 1028.9
20171212131528 23 317 0.0 0.0 0.00 0.00 0.00 86 1028.9
20171212131034 23 317 0.0 0.0 0.00 0.00 0.00 85 1028.8
20171212130523 23 317 0.0 0.0 0.00 0.00 0.00 84 1028.7
20171212130042 23 317 0.0 0.0 0.00 0.00 0.00 84 1028.7
20171212125534 24 317 0.0 0.0 0.00 0.00 0.00 83 1028.7
20171212125021 24 317 0.0 0.0 0.00 0.00 0.00 84 1028.6
20171212124528 24 317 0.0 0.0 0.00 0.00 0.00 84 1028.7
20171212124035 24 317 0.0 0.0 0.00 0.00 0.00 84 1028.6
20171212123527 24 317 0.0 0.0 0.00 0.00 0.00 84 1028.4
20171212123034 24 317 0.0 0.0 0.00 0.00 0.00 83 1028.4
20171212122521 24 317 0.0 0.0 0.00 0.00 0.00 83 1028.4
20171212122032 24 317 0.0 0.0 0.00 0.00 0.00 82 1028.4
20171212121536 24 317 0.0 0.0 0.00 0.00 0.00 82 1028.3
20171212121023 24 317 0.0 0.0 0.00 0.00 0.00 81 1028.3
20171212120519 25 317 0.0 0.0 0.00 0.00 0.00 80 1028.2
20171212120044 25 317 0.0 0.0 0.00 0.00 0.00 80 1028.2
20171212115535 26 317 0.0 0.0 0.00 0.00 0.00 80 1028.2
20171212115043 26 317 0.0 0.0 0.00 0.00 0.00 81 1028.2
20171212114527 26 317 0.0 0.0 0.00 0.00 0.00 81 1028.3
20171212114032 27 317 0.0 0.0 0.00 0.00 0.00 82 1028.3
20171212113521 27 317 0.0 0.0 0.00 0.00 0.00 82 1028.4
20171212113028 27 317 0.0 0.0 0.00 0.00 0.00 82 1028.3
20171212112535 27 318 0.0 0.0 0.00 0.00 0.00 83 1028.4
20171212112023 26 318 0.0 0.0 0.00 0.00 0.00 84 1028.3
20171212111528 26 322 0.0 0.0 0.00 0.00 0.00 84 1028.2
20171212111035 26 326 0.0 0.0 0.00 0.00 0.00 85 1028.3
20171212110524 25 333 0.0 0.0 0.00 0.00 0.00 84 1028.3
20171212110042 25 333 0.0 0.0 0.00 0.00 0.00 84 1028.4
20171212105549 25 333 0.0 0.0 0.00 0.00 0.00 84 1028.4
20171212105028 25 333 0.0 0.0 0.00 0.00 0.00 84 1028.6
20171212104536 25 333 0.0 0.0 0.00 0.00 0.00 84 1028.5
20171212104024 24 333 0.0 0.0 0.00 0.00 0.00 83 1028.5
20171212103531 24 333 0.0 0.0 0.00 0.00 0.00 83 1028.5
20171212103038 24 333 0.0 0.0 0.00 0.00 0.00 82 1028.5
20171212102524 24 333 0.0 0.0 0.00 0.00 0.00 81 1028.5
20171212102033 25 333 0.0 0.0 0.00 0.00 0.00 81 1028.6
20171212101540 25 333 0.0 0.0 0.00 0.00 0.00 80 1028.7
20171212101031 25 333 0.0 0.0 0.00 0.00 0.00 80 1028.7
20171212100522 26 333 0.0 0.0 0.00 0.00 0.00 80 1028.6
20171212100040 26 333 0.0 0.0 0.00 0.00 0.00 80 1028.5
20171212095533 27 333 0.0 0.0 0.00 0.00 0.00 79 1028.6
20171212095022 27 333 0.0 0.0 0.00 0.00 0.00 79 1028.4
20171212094527 27 333 0.0 0.0 0.00 0.00 0.00 79 1028.5
20171212094035 28 333 0.0 0.0 0.00 0.00 0.00 79 1028.6
20171212093526 28 333 0.0 0.0 0.00 0.00 0.00 79 1028.7
20171212093034 29 333 0.0 0.0 0.00 0.00 0.00 79 1028.7
20171212092525 29 333 0.0 0.0 0.00 0.00 0.00 80 1028.6
20171212091039 30 333 0.0 0.0 0.00 0.00 0.00 78 1028.5
20171212090538 30 333 0.0 0.0 0.00 0.00 0.00 77 1028.4
20171212090035 31 333 0.0 0.0 0.00 0.00 0.00 78 1028.4
20171212085526 31 333 0.0 0.0 0.00 0.00 0.00 77 1028.4
20171212085037 31 332 0.0 0.0 0.00 0.00 0.00 78 1028.5
20171212084524 31 332 0.0 0.0 0.00 0.00 0.00 78 1028.4
20171212084034 32 332 0.0 0.0 0.00 0.00 0.00 79 1028.6
20171212083539 32 332 0.0 0.0 0.00 0.00 0.00 79 1028.5
20171212083026 32 346 0.0 0.0 0.00 0.00 0.00 78 1028.5
20171212082529 32 346 0.0 0.0 0.00 0.00 0.00 78 1028.4
20171212082035 32 346 0.0 0.0 0.00 0.00 0.00 78 1028.3
20171212081522 32 5 0.0 0.0 0.00 0.00 0.00 78 1028.2
20171212081030 32 5 0.0 0.0 0.00 0.00 0.00 77 1028.2
20171212080527 33 331 0.0 0.0 0.00 0.00 0.00 77 1028.1
20171212080051 33 331 0.0 0.0 0.00 0.00 0.00 76 1028.1
20171212075525 33 5 0.0 0.0 0.00 0.00 0.00 76 1028.1
20171212075032 33 296 0.0 0.0 0.00 0.00 0.00 76 1028.2
20171212074538 34 331 0.0 0.0 0.00 0.00 0.00 77 1028.1
20171212074024 34 313 0.0 0.0 0.00 0.00 0.00 76 1028.1
20171212073535 34 312 0.0 0.0 0.00 0.00 0.00 76 1028.0
20171212073022 34 296 0.0 0.0 0.00 0.00 0.00 77 1028.0
20171212072528 34 341 0.0 0.0 0.00 0.00 0.00 76 1027.8
20171212072037 34 321 0.0 0.0 0.00 0.00 0.00 74 1027.8
20171212071524 34 323 0.0 0.0 0.00 0.00 0.00 74 1027.8
20171212071031 34 323 0.0 0.0 0.00 0.00 0.00 74 1027.8
20171212070539 35 308 0.0 0.0 0.00 0.00 0.00 74 1027.8
20171212070039 35 308 0.0 0.0 0.00 0.00 0.00 73 1027.8
20171212065532 35 309 0.0 0.0 0.00 0.00 0.00 73 1027.8
20171212065023 35 313 0.0 0.0 0.00 0.00 0.00 73 1027.7
20171212064530 36 317 0.0 0.0 0.00 0.00 0.00 73 1027.6
20171212064037 35 325 0.0 0.0 0.00 0.00 0.00 74 1027.5
20171212063526 35 323 0.0 0.0 0.00 0.00 0.00 74 1027.4
20171212063033 35 319 0.0 0.0 0.00 0.00 0.00 74 1027.5
20171212062538 35 333 0.0 0.0 0.00 0.00 0.00 74 1027.5
20171212062026 35 322 0.0 0.0 0.00 0.00 0.00 74 1027.6
20171212061532 35 311 0.0 0.0 0.00 0.00 0.00 74 1027.6
20171212061039 35 317 0.0 0.0 0.00 0.00 0.00 73 1027.7
20171212060528 35 323 0.0 0.0 0.00 0.00 0.00 73 1027.6
20171212060049 36 327 0.0 0.0 0.00 0.00 0.00 73 1027.7
20171212055521 36 303 0.0 0.0 0.00 0.00 0.00 73 1027.5
20171212055030 36 331 0.0 0.0 0.00 0.00 0.00 73 1027.5
20171212054540 36 333 0.0 0.0 0.00 0.00 0.00 72 1027.5
20171212054027 36 355 0.0 0.0 0.00 0.00 0.00 72 1027.4
20171212053536 36 319 0.0 0.0 0.00 0.00 0.00 72 1027.3
20171212053040 36 313 0.0 0.0 0.00 0.00 0.00 72 1027.2
20171212052526 36 310 0.0 0.0 0.00 0.00 0.00 71 1027.2
20171212052034 36 355 0.0 0.0 0.00 0.00 0.00 70 1027.0
20171212051529 36 323 0.0 0.0 0.00 0.00 0.00 69 1027.0
20171212051038 37 323 0.0 0.0 0.00 0.00 0.00 69 1026.9
20171212050526 37 334 0.0 0.0 0.00 0.00 0.00 69 1026.9
20171212050043 37 334 0.0 0.0 0.00 0.00 0.00 68 1027.0
20171212045536 38 342 0.0 0.0 0.00 0.00 0.00 68 1027.0
20171212045024 38 347 0.0 0.0 0.00 0.00 0.00 67 1027.0
20171212044531 38 340 0.0 0.0 0.00 0.00 0.00 67 1026.9
20171212044038 38 344 0.0 0.0 0.00 0.00 0.00 66 1026.9
20171212043525 39 323 0.0 0.0 0.00 0.00 0.00 66 1026.9
20171212043030 39 313 0.0 0.0 0.00 0.00 0.00 66 1026.8
20171212042540 39 348 0.0 0.0 0.00 0.00 0.00 66 1026.7
20171212042028 39 11 0.0 0.0 0.00 0.00 0.00 65 1026.6
20171212041533 39 360 0.0 0.0 0.00 0.00 0.00 65 1026.6
20171212041039 39 13 0.0 0.0 0.00 0.00 0.00 64 1026.4
20171212040527 39 11 0.0 0.0 0.00 0.00 0.00 64 1026.3
20171212040034 40 341 0.0 0.0 0.00 0.00 0.00 63 1026.2
20171212035530 40 321 0.0 0.0 0.00 0.00 0.00 62 1026.2
20171212035037 40 327 0.0 0.0 0.00 0.00 0.00 62 1026.1
20171212034527 41 323 0.0 0.0 0.00 0.00 0.00 62 1026.1
20171212034034 41 323 0.0 0.0 0.00 0.00 0.00 61 1026.0
20171212033526 41 323 0.0 0.0 0.00 0.00 0.00 61 1026.0
20171212033030 41 35 0.0 0.0 0.00 0.00 0.00 61 1026.0
20171212032537 41 305 0.0 0.0 0.00 0.00 0.00 61 1025.9
20171212032024 42 343 0.0 0.0 0.00 0.00 0.00 60 1025.9
20171212031530 42 350 0.0 0.0 0.00 0.00 0.00 60 1025.8
20171212031022 42 317 0.0 0.0 0.00 0.00 0.00 59 1025.8
20171212030532 42 5 0.0 0.0 0.00 0.00 0.00 59 1025.8
20171212030049 42 64 0.0 0.0 0.00 0.00 0.00 59 1025.7
20171212025521 42 304 0.0 0.0 0.00 0.00 0.00 59 1025.5
20171212025029 43 302 0.0 0.0 0.00 0.00 0.00 59 1025.5
20171212024537 43 44 0.0 0.0 0.00 0.00 0.00 59 1025.3
20171212024023 43 36 0.0 0.0 0.00 0.00 0.00 58 1025.3
20171212023532 43 360 0.0 0.0 0.00 0.00 0.00 58 1025.2
20171212023021 43 304 0.0 0.0 0.00 0.00 0.00 58 1025.3
20171212022526 43 335 0.0 0.0 0.00 0.00 0.00 58 1025.2
20171212022035 44 308 0.0 0.0 0.00 0.00 0.00 57 1025.1
20171212021522 44 320 0.0 0.0 0.00 0.00 0.00 57 1025.1
20171212021028 44 341 0.0 0.0 0.00 0.00 0.00 57 1025.1
20171212020536 44 328 0.0 0.0 0.00 0.00 0.00 56 1024.9
20171212020036 44 28 0.0 0.0 0.00 0.00 0.00 56 1024.8
20171212015527 44 315 0.0 0.0 0.00 0.00 0.00 56 1024.6
20171212015034 45 309 0.0 0.0 0.00 0.00 0.00 55 1024.6
20171212014539 45 59 0.0 0.0 0.00 0.00 0.00 54 1024.4
20171212014025 45 33 0.0 0.0 0.00 0.00 0.00 54 1024.2
20171212013533 45 302 0.0 0.0 0.00 0.00 0.00 53 1024.0
20171212013040 46 23 0.0 0.0 0.00 0.00 0.00 53 1023.9